TimeCST,TemperatureF,Dew PointF,Humidity,Sea Level PressureIn,VisibilityMPH,Wind Direction,Wind SpeedMPH,Gust SpeedMPH,PrecipitationIn,Events,Conditions,WindDirDegrees,DateUTC
12:15 AM,71.1,66.2,85,29.93,10.0,SE,4.6,-,N/A,,Mostly Cloudy,140,2013-01-01 06:15:00
12:35 AM,70.9,66.4,86,29.92,10.0,SE,3.5,-,N/A,,Overcast,130,2013-01-01 06:35:00
12:55 AM,70.0,66.6,89,29.92,10.0,SE,4.6,-,N/A,,Overcast,130,2013-01-01 06:55:00
1:15 AM,69.4,66.6,91,29.92,10.0,SE,4.6,-,N/A,,Overcast,130,2013-01-01 07:15:00
1:35 AM,69.1,66.4,91,29.91,7.0,ESE,5.8,-,0.01,,Overcast,110,2013-01-01 07:35:00
1:55 AM,69.1,66.9,93,29.90,7.0,SE,6.9,-,0.01,,Overcast,140,2013-01-01 07:55:00
2:15 AM,69.4,67.1,92,29.90,7.0,SE,8.1,-,0.01,,Overcast,140,2013-01-01 08:15:00
2:35 AM,70.0,67.1,91,29.88,10.0,SE,6.9,-,0.01,,Scattered Clouds,140,2013-01-01 08:35:00
2:55 AM,69.8,67.1,91,29.88,10.0,SE,5.8,-,0.01,,Mostly Cloudy,140,2013-01-01 08:55:00
3:15 AM,69.6,67.1,92,29.89,7.0,SE,9.2,-,N/A,,Overcast,140,2013-01-01 09:15:00
3:35 AM,69.8,67.1,91,29.90,7.0,South,6.9,-,N/A,,Overcast,180,2013-01-01 09:35:00
3:55 AM,69.8,67.1,91,29.86,7.0,SE,5.8,-,0.01,,Overcast,140,2013-01-01 09:55:00
4:15 AM,69.8,67.1,91,29.89,7.0,SW,5.8,-,N/A,,Mostly Cloudy,220,2013-01-01 10:15:00
4:35 AM,69.1,66.9,93,29.91,5.0,West,6.9,-,N/A,,Overcast,260,2013-01-01 10:35:00
4:55 AM,68.9,66.7,93,29.90,7.0,West,5.8,-,N/A,,Overcast,280,2013-01-01 10:55:00
5:15 AM,68.0,66.2,94,29.90,5.0,West,5.8,-,N/A,,Overcast,270,2013-01-01 11:15:00
5:35 AM,67.5,65.5,93,29.91,7.0,West,9.2,-,N/A,,Overcast,280,2013-01-01 11:35:00
5:55 AM,66.2,63.1,90,29.92,10.0,WNW,8.1,-,N/A,,Overcast,290,2013-01-01 11:55:00
6:15 AM,65.7,63.1,92,29.93,10.0,WNW,5.8,-,N/A,,Overcast,290,2013-01-01 12:15:00
6:35 AM,65.3,63.0,92,29.93,7.0,WNW,6.9,-,N/A,,Overcast,290,2013-01-01 12:35:00
6:55 AM,64.6,62.4,93,29.95,7.0,WNW,8.1,-,N/A,,Overcast,290,2013-01-01 12:55:00
7:15 AM,63.5,61.3,93,29.96,7.0,WNW,8.1,-,N/A,,Overcast,300,2013-01-01 13:15:00
7:35 AM,63.0,61.0,93,29.97,7.0,NW,6.9,-,N/A,,Mostly Cloudy,310,2013-01-01 13:35:00
7:55 AM,63.0,61.2,94,29.99,4.0,WNW,6.9,-,N/A,,Mostly Cloudy,290,2013-01-01 13:55:00
8:15 AM,62.8,61.0,94,30.00,3.0,WNW,6.9,-,N/A,,Overcast,300,2013-01-01 14:15:00
8:35 AM,62.8,61.2,94,30.01,3.0,WNW,8.1,-,0.01,,Overcast,300,2013-01-01 14:35:00
8:55 AM,63.0,61.3,94,30.02,3.0,NW,9.2,-,0.01,,Overcast,310,2013-01-01 14:55:00
9:15 AM,63.5,61.7,94,30.02,2.0,NNW,9.2,-,N/A,,Overcast,330,2013-01-01 15:15:00
9:35 AM,62.4,60.8,94,30.04,2.0,NNW,15.0,20.7,N/A,,Overcast,340,2013-01-01 15:35:00
9:55 AM,61.9,59.7,93,30.05,10.0,North,12.7,-,N/A,,Overcast,350,2013-01-01 15:55:00
10:15 AM,62.1,58.5,88,30.07,10.0,North,12.7,21.9,N/A,,Overcast,350,2013-01-01 16:15:00
10:35 AM,62.6,58.6,87,30.08,10.0,North,10.4,-,N/A,,Overcast,350,2013-01-01 16:35:00
10:55 AM,63.0,58.3,85,30.09,10.0,North,11.5,18.4,N/A,,Overcast,360,2013-01-01 16:55:00
11:15 AM,63.1,57.7,83,30.09,10.0,North,10.4,17.3,N/A,,Overcast,360,2013-01-01 17:15:00
11:35 AM,62.8,56.8,81,30.09,10.0,NNE,15.0,24.2,N/A,,Overcast,20,2013-01-01 17:35:00
11:55 AM,62.8,54.3,74,30.10,10.0,North,17.3,26.5,N/A,,Overcast,360,2013-01-01 17:55:00
12:15 PM,62.6,53.2,71,30.09,10.0,North,16.1,21.9,N/A,,Overcast,10,2013-01-01 18:15:00
12:35 PM,62.6,52.3,69,30.09,10.0,North,17.3,24.2,N/A,,Overcast,360,2013-01-01 18:35:00
12:55 PM,62.6,52.5,70,30.08,10.0,North,17.3,23.0,N/A,,Overcast,10,2013-01-01 18:55:00
1:15 PM,62.6,53.1,71,30.07,10.0,North,15.0,-,N/A,,Overcast,360,2013-01-01 19:15:00
1:35 PM,63.7,53.6,70,30.05,10.0,North,9.2,16.1,N/A,,Overcast,10,2013-01-01 19:35:00
1:55 PM,64.0,52.7,67,30.06,10.0,North,15.0,23.0,N/A,,Overcast,10,2013-01-01 19:55:00
2:15 PM,64.2,53.4,68,30.06,10.0,North,16.1,21.9,N/A,,Overcast,360,2013-01-01 20:15:00
2:35 PM,63.5,52.0,66,30.06,10.0,North,13.8,23.0,N/A,,Overcast,360,2013-01-01 20:35:00
2:55 PM,64.2,52.7,66,30.08,10.0,North,12.7,18.4,N/A,,Overcast,350,2013-01-01 20:55:00
3:15 PM,63.7,52.7,67,30.09,10.0,North,12.7,17.3,N/A,,Overcast,360,2013-01-01 21:15:00
3:35 PM,63.0,52.2,68,30.08,10.0,North,13.8,17.3,N/A,,Overcast,350,2013-01-01 21:35:00
3:55 PM,62.4,51.8,68,30.08,10.0,North,9.2,19.6,N/A,,Mostly Cloudy,360,2013-01-01 21:55:00
4:15 PM,62.1,50.9,67,30.09,10.0,North,13.8,21.9,N/A,,Mostly Cloudy,10,2013-01-01 22:15:00
4:35 PM,62.1,51.1,67,30.11,10.0,NNE,8.1,16.1,N/A,,Mostly Cloudy,20,2013-01-01 22:35:00
4:55 PM,61.9,51.3,68,30.09,10.0,NNE,9.2,-,N/A,,Mostly Cloudy,30,2013-01-01 22:55:00
5:15 PM,61.7,50.5,67,30.10,10.0,NNE,6.9,-,N/A,,Overcast,20,2013-01-01 23:15:00
5:35 PM,61.7,50.5,67,30.11,10.0,NNE,8.1,-,N/A,,Overcast,20,2013-01-01 23:35:00
5:55 PM,61.3,50.7,68,30.12,10.0,North,11.5,-,N/A,,Overcast,10,2013-01-01 23:55:00
6:15 PM,61.2,50.7,69,30.12,10.0,NNE,8.1,-,N/A,,Overcast,20,2013-01-02 00:15:00
6:35 PM,61.0,50.7,69,30.13,10.0,NNE,5.8,-,N/A,,Overcast,20,2013-01-02 00:35:00
6:55 PM,60.8,50.9,70,30.13,10.0,North,6.9,-,N/A,,Overcast,10,2013-01-02 00:55:00
7:15 PM,60.4,50.9,71,30.14,10.0,North,8.1,-,N/A,,Overcast,10,2013-01-02 01:15:00
7:35 PM,60.3,50.9,71,30.15,10.0,North,4.6,-,N/A,,Scattered Clouds,10,2013-01-02 01:35:00
7:55 PM,59.9,51.1,73,30.16,10.0,North,4.6,-,N/A,,Clear,360,2013-01-02 01:55:00
8:15 PM,59.5,51.1,74,30.16,10.0,North,4.6,-,N/A,,Clear,350,2013-01-02 02:15:00
8:35 PM,59.5,51.1,74,30.17,10.0,North,5.8,-,N/A,,Scattered Clouds,350,2013-01-02 02:35:00
8:55 PM,59.5,50.4,72,30.17,10.0,North,5.8,-,N/A,,Clear,360,2013-01-02 02:55:00
9:15 PM,59.2,50.0,72,30.17,10.0,North,5.8,-,N/A,,Clear,10,2013-01-02 03:15:00
9:35 PM,59.0,49.5,71,30.17,10.0,NNE,6.9,-,N/A,,Clear,20,2013-01-02 03:35:00
9:55 PM,58.6,49.5,72,30.17,10.0,North,5.8,-,N/A,,Clear,360,2013-01-02 03:55:00
10:15 PM,58.1,49.6,73,30.18,10.0,NNW,8.1,-,N/A,,Clear,340,2013-01-02 04:15:00
10:35 PM,58.1,49.5,73,30.17,10.0,North,9.2,17.3,N/A,,Scattered Clouds,360,2013-01-02 04:35:00
10:55 PM,57.6,49.5,74,30.19,10.0,North,5.8,-,N/A,,Mostly Cloudy,350,2013-01-02 04:55:00
11:15 PM,57.2,48.7,73,30.17,10.0,North,10.4,-,N/A,,Overcast,10,2013-01-02 05:15:00
11:55 PM,56.3,47.5,72,30.18,10.0,North,9.2,-,N/A,,Overcast,360,2013-01-02 05:55:00